Location: Unspecified
(50.7693°N, 0.0000°E)
Time: 09:14:12
(UTC+00:00)

SR - Pass Details

Date: 03 July 2019
Orbit: 580 x 875 km, 66.7° (Epoch: 16 July)

Event Time Altitude Azimuth Distance (km) Brightness Sun altitude
Rises 00:50:43 0° 196° (SSW) 2,787 - -15.5°
Reaches altitude 10° 00:52:59 10° 189° (S) 1,896 - -15.5°
Exits shadow 00:55:06 26° 172° (S) 1,162 ? -15.4°
Maximum altitude 00:56:58 42° 119° (ESE) 850 ? -15.3°
Drops below altitude 10° 01:01:08 10° 48° (NE) 1,980 ? -15.2°
Sets 01:03:33 0° 42° (NE) 2,927 ? -15.1°
